SCP
0 0 0 0 0 0 0 0 0 0 0 0 0 0 0 0 0 0 0 0 0 0 0 0 0 0 0 0 0 0 0 0 0 0 0 0 0 0 0 0 0 0 0
0 0 0 0 0 0 0 0 0 0 0 0 0 0 0 0 0 0 0 0 0 0 0 0 0 0 0 0 0 0 0 0 0 0 0 0 0 0 0 0 0 0 0
0 0 0 0 0 0 0 0 0 0 0 0 0 0 0 0 0 0 0 0 0 0 0 0 0 0 0 0 0 0 0 0 0 0 0 0 0 0 0 0 0 0 0
0 0 0 0 0 0 0 0 0 0 0 0 0 0 0 0 0 0 0 0 0 0 0 0 0 0 0 0 0 0 0 0 0 0 0 0 0 0 0 0 0 0 0
0 0 0 0 0 0 0 0 0 0 0 0 0 0 0 0 0 0 0 0 0 0 0 0 0 0 0 0 0 0 0 0 0 0 0 0 0 0 0 0 0 0 0
0 0 0 0 0 0 0 0 0 0 0 0 0 0 0 0 0 0 0 0 0 0 0 0 0 0 0 0 0 0 0 0 0 0 0 0 0 0 0 0 0 0 0
0 0 0 0 0 0 0 0 0 0 0 0 0 0 0 0 0 0 0 0 0 0 0 0 0 0 0 0 0 0 0 0 0 0 0 0 0 0 0 0 0 0 0
0 0 0 0 0 0 0 0 0 0 0 0 0 0 0 0 0 0 0 0 0 0 0 0 0 0 0 0 0 0 0 0 0 0 0 0 0 0 0 0 0 0 0
0 0 0 0 0 0 0 0 0 0 0 0 0 0 0 0 0 0 0 0 0 0 0 0 0 0 0 0 0 0 0 0 0 0 0 0 0 0 0 0 0 0 0
0 0 0 0 0 0 0 0 0 0 0 0 0 0 0 0 0 0 0 0 0 0 0 0 0 0 0 0 0 0 0 0 0 0 0 0 0 0 0 0 0 0 0
0 0 0 0 0 0 0 0 0 0 0 0 0 0 0 0 0 0 0 0 0 0 0 0 0 0 0 0 0 0 0 0 0 0 0 0 0 0 0 0 0 0 0
0 0 0 0 0 0 0 0 0 0 0 0 0 0 0 0 0 0 0 0 0 0 0 0 0 0 0 0 0 0 0 0 0 0 0 0 0 0 0 0 0 0 0
0 0 0 0 0 0 0 0 0 0 0 0 0 0 0 0 0 0 0 0 0 0 0 0 0 0 0 0 0 0 0 0 0 0 0 0 0 0 0 0 0 0 0
0 0 0 0 0 0 0 0 0 0 0 0 0 0 0 0 0 0 0 0 0 0 0 0 0 0 0 0 0 0 0 0 0 0 0 0 0 0 0 0 0 0 0
0 0 0 0 0 0 0 0 0 0 0 0 0 0 0 0 0 0 0 0 0 0 0 0 0 0 0 0 0 0 0 0 0 0 0 0 0 0 0 0 0 0 0
0 0 0 0 0 0 0 0 0 0 0 0 0 0 0 0 0 0 0 0 0 0 0 0 0 0 0 0 0 0 0 0 0 0 0 0 0 0 0 0 0 0 0
0 0 0 0 0 0 0 0 0 0 0 0 0 0 0 0 0 0 0 0 0 0 0 0 0 0 0 0 0 0 0 0 0 0 0 0 0 0 0 0 0 0 0
0 0 0 0 0 0 0 0 0 0 0 0 0 0 0 0 0 0 0 0 0 0 0 0 0 0 0 0 0 0 0 0 0 0 0 0 0 0 0 0 0 0 0
0 0 0 0 0 0 0 0 0 0 0 0 0 0 0 0 0 0 0 0 0 0 0 0 0 0 0 0 0 0 0 0 0 0 0 0 0 0 0 0 0 0 0
0 0 0 0 0 0 0 0 0 0 0 0 0 0 0 0 0 0 0 0 0 0 0 0 0 0 0 0 0 0 0 0 0 0 0 0 0 0 0 0 0 0 0
0 0 0 0 0 0 0 0 0 0 0 0 0 0 0 0 0 0 0 0 0 0 0 0 0 0 0 0 0 0 0 0 0 0 0 0 0 0 0 0 0 0 0
0 0 0 0 0 0 0 0 0 0 0 0 0 0 0 0 0 0 0 0 0 0 0 0 0 0 0 0 0 0 0 0 0 0 0 0 0 0 0 0 0 0 0
0 0 0 0 0 0 0 0 0 0 0 0 0 0 0 0 0 0 0 0 0 0 0 0 0 0 0 0 0 0 0 0 0 0 0 0 0 0 0 0 0 0 0
0 0 0 0 0 0 0 0 0 0 0 0 0 0 0 0 0 0 0 0 0 0 0 0 0 0 0 0 0 0 0 0 0 0 0 0 0 0 0 0 0 0 0
0 0 0 0 0 0 0 0 0 0 0 0 0 0 0 0 0 0 0 0 0 0 0 0 0 0 0 0 0 0 0 0 0 0 0 0 0 0 0 0 0 0 0
0 0 0 0 0 0 0 0 0 0 0 0 0 0 0 0 0 0 0 0 0 0 0 0 0 0 0 0 0 0 0 0 0 0 0 0 0 0 0 0 0 0 0
Wind_Speed
5 4 3 3 4 3 3 4 4 4 5 5 5 5 6 6 6 5 3 6 6 7 7 7 8 8 9 9 9 8 8 8 8 8 9 9 9 8 8 8 8 8 8
5 5 4 4 4 4 3 4 5 4 4 4 5 5 6 6 6 6 5 5 8 7 7 7 8 9 10 10 9 8 9 9 9 9 9 9 8 8 8 7 7 7 7
5 4 4 4 4 4 4 4 5 4 4 4 5 5 5 5 5 6 5 4 5 8 7 7 8 9 10 10 10 9 9 10 10 10 9 9 8 8 8 7 7 7 7
5 5 4 4 4 4 4 3 4 4 4 4 4 4 4 3 6 6 5 5 4 4 7 7 7 8 9 10 10 10 10 10 10 10 9 9 8 8 7 7 7 7 7
6 5 4 5 5 3 3 4 3 3 3 3 3 3 4 3 4 5 6 6 5 4 4 7 7 7 8 9 9 10 10 10 11 11 10 9 9 8 8 7 7 7 7
5 5 4 5 4 3 3 3 3 3 3 3 4 3 3 3 3 4 5 4 4 5 5 5 6 7 7 7 8 9 10 11 12 11 11 10 10 9 9 8 8 8 8
5 5 4 4 4 3 4 5 3 4 3 2 2 2 2 3 2 2 3 3 4 4 5 5 4 4 5 8 7 8 10 11 12 12 12 11 10 10 9 9 9 9 8
5 4 4 4 3 3 4 4 3 3 2 2 2 2 2 3 3 2 2 2 3 3 4 5 5 4 3 4 6 8 8 9 11 12 13 13 12 11 10 10 10 9 9
5 5 5 4 4 4 3 3 3 3 3 2 2 2 2 1 1 2 2 2 2 2 2 3 4 5 5 4 5 8 7 7 9 11 12 12 13 12 12 11 10 10 10
4 4 4 4 4 3 3 3 2 3 3 2 1 1 2 1 1 1 2 2 2 3 2 2 2 3 4 3 3 5 7 7 7 9 10 11 12 13 12 12 12 11 11
4 4 4 4 4 3 3 3 3 3 3 3 2 1 1 1 2 1 1 1 2 1 1 1 1 2 2 3 4 5 7 7 7 8 9 10 11 12 12 12 12 12 12
3 4 4 4 4 3 3 3 3 3 3 3 3 2 2 1 1 1 1 2 1 1 1 1 1 1 1 2 3 5 7 7 7 7 7 8 9 10 11 12 12 12 12
4 5 4 4 4 3 3 3 2 3 3 3 3 2 2 2 1 1 2 2 2 1 2 2 1 1 1 2 2 4 6 7 7 7 7 7 7 8 10 11 12 12 12
4 5 5 4 4 4 3 2 2 2 2 3 3 3 2 2 2 2 2 2 2 2 2 2 1 2 1 1 1 4 5 8 7 7 7 7 7 8 8 9 10 11 11
4 5 5 4 3 3 3 3 1 1 2 2 2 2 2 1 2 2 2 2 2 2 2 2 1 2 1 1 2 4 4 6 7 8 8 8 8 8 8 9 9 9 9
5 5 4 4 3 2 2 2 2 1 1 0 1 2 2 2 1 2 2 2 3 2 1 0 0 1 1 2 2 3 3 4 7 8 8 8 8 8 8 8 9 9 8
4 4 4 4 3 3 2 2 2 1 1 0 1 1 2 2 2 2 2 2 2 2 2 1 1 1 2 2 2 2 3 4 4 7 7 8 8 8 9 9 9 9 9
4 4 4 4 3 3 2 2 2 1 1 0 0 1 1 1 2 2 2 2 2 2 2 2 2 1 1 1 2 2 2 2 3 5 7 7 8 8 8 8 9 9 10
3 3 3 3 3 2 2 2 2 1 1 1 0 1 1 2 2 2 2 2 2 2 2 2 2 1 1 1 2 2 3 2 3 3 6 8 8 8 8 9 9 9 9
3 3 3 3 3 3 2 2 2 1 1 0 0 1 1 1 2 2 2 3 2 3 3 3 3 2 2 2 2 2 2 2 3 3 3 3 6 8 9 9 10 10 10
3 3 3 2 3 3 3 3 2 1 1 0 0 0 1 1 3 3 3 2 3 3 3 3 3 3 2 2 2 2 3 3 3 3 2 3 4 5 6 9 11 11 10
3 3 3 3 2 2 4 4 4 1 1 0 1 0 0 2 1 2 3 3 4 4 3 3 3 4 4 3 2 3 3 3 3 2 3 4 4 5 5 5 6 9 11
2 3 2 2 2 2 3 3 4 3 1 1 1 0 0 0 2 2 4 6 5 6 6 6 5 5 4 3 4 4 4 4 4 2 3 4 4 5 4 4 7 9 10
2 2 3 3 2 2 3 3 4 3 1 1 1 1 1 1 1 2 3 3 3 3 4 6 5 5 4 4 4 5 5 4 4 4 4 4 4 4 4 4 7 10 10
2 2 2 2 2 1 1 2 5 2 1 1 1 1 2 1 2 3 3 3 3 2 3 4 5 5 5 5 5 4 5 4 4 4 3 4 3 4 4 5 4 8 9
3 3 2 3 3 2 2 2 5 3 2 1 1 1 1 2 2 3 4 3 3 3 3 3 5 6 6 6 8 8 6 5 4 4 3 3 3 3 3 3 3 4 6
Wind_Direction
306 306 297 303 297 295 277 273 267 262 257 251 243 236 240 236 240 239 206 184 223 241 238 223 210 203 196 192 187 186 181 170 166 163 158 155 152 148 148 146 147 148 150
308 307 300 301 298 295 295 281 271 269 264 253 245 243 243 239 236 238 246 196 203 226 233 224 209 203 197 195 189 188 184 176 170 166 163 160 158 155 154 155 153 154 156
308 307 306 302 300 297 290 282 279 269 262 254 243 238 239 242 242 233 236 240 205 198 212 218 208 201 198 197 192 189 187 179 173 170 169 166 164 163 159 157 158 158 158
314 311 305 303 305 299 291 280 274 269 259 257 252 243 243 233 243 239 234 230 230 208 189 193 193 195 198 199 194 190 188 180 178 175 174 172 171 168 166 165 164 165 163
316 306 303 303 303 297 292 287 282 283 276 267 258 239 241 236 238 234 230 228 221 220 202 169 183 192 196 198 197 193 190 185 184 181 181 178 178 178 176 174 174 174 172
317 313 300 301 303 295 289 286 286 277 281 271 263 247 231 229 231 237 236 224 220 215 207 185 184 183 185 192 199 198 195 194 190 187 186 185 185 185 185 184 184 184 184
322 315 307 305 299 296 292 289 284 275 272 272 261 240 209 208 213 224 233 225 209 210 202 192 192 186 179 187 196 202 202 201 197 193 192 191 191 192 193 194 194 194 193
325 318 313 306 300 291 284 286 281 282 278 253 264 254 210 182 191 201 211 217 216 200 206 192 188 187 197 185 174 192 202 205 205 202 198 195 195 198 200 200 201 200 199
328 322 317 311 305 294 291 282 275 270 280 266 255 266 250 204 176 174 200 204 213 220 209 200 195 194 196 194 177 181 192 202 206 208 206 202 201 203 204 203 204 204 205
334 329 317 308 303 299 293 280 279 270 270 267 248 258 300 325 245 182 179 186 201 216 207 200 206 207 207 195 181 168 181 197 206 209 209 209 207 207 208 209 208 207 207
342 338 323 312 306 299 300 296 289 275 258 258 260 244 238 241 256 252 205 198 192 203 203 208 214 225 213 205 199 176 178 193 204 211 212 213 212 210 210 211 210 211 210
341 348 332 321 318 311 308 301 279 263 262 251 252 244 239 234 233 254 249 233 211 186 198 188 207 219 236 227 208 160 180 192 202 211 213 212 209 210 210 211 214 215 214
342 348 335 331 332 323 315 301 277 269 252 244 243 247 246 262 263 261 256 243 239 213 192 190 185 198 227 235 203 165 190 190 198 205 210 210 207 209 211 212 215 216 218
339 340 333 336 335 328 315 306 288 271 262 254 249 242 234 237 249 246 252 249 236 219 200 181 168 191 217 230 146 209 200 189 197 205 210 213 211 211 213 214 217 220 221
337 339 340 337 344 339 325 314 301 295 273 265 257 232 227 217 235 238 246 248 258 252 216 166 167 185 224 229 163 226 221 181 196 206 210 213 214 215 216 215 216 219 221
339 336 338 339 344 338 325 320 316 333 285 256 264 252 233 227 227 226 234 239 254 265 265 263 226 198 227 235 199 242 238 175 201 205 209 212 212 214 216 215 213 213 216
333 336 340 342 344 341 335 330 327 347 312 306 234 245 246 255 238 225 226 226 239 251 242 266 286 244 227 235 219 240 236 229 207 190 201 209 211 214 217 218 216 214 213
330 335 339 341 345 343 338 334 337 335 333 327 235 246 247 229 247 246 235 228 227 238 235 247 255 263 266 248 245 246 246 237 238 181 195 209 212 213 216 216 214 214 214
330 334 332 337 336 336 333 328 324 312 303 298 282 250 253 228 229 224 230 230 230 231 236 244 263 286 269 250 250 246 238 238 245 200 197 208 213 215 216 216 216 217 218
332 336 330 335 333 333 326 322 313 310 301 342 310 280 271 259 252 240 234 227 227 229 227 229 237 243 250 254 252 254 253 236 239 234 220 219 208 212 218 218 218 219 219
322 332 334 337 342 337 355 342 327 331 333 60 32 347 356 355 352 321 295 263 237 233 233 233 236 237 237 239 253 268 269 268 255 237 241 235 221 224 216 214 217 218 220
314 330 338 345 351 1 19 350 319 328 329 60 72 46 153 197 196 234 282 305 301 270 253 245 243 243 250 251 257 258 266 265 262 221 250 253 243 242 238 234 207 207 218
313 318 335 338 344 15 11 344 314 305 306 328 354 16 13 30 251 237 209 215 231 244 262 275 267 261 260 256 257 255 250 258 269 267 263 257 242 246 245 234 205 212 220
304 305 325 329 330 1 5 332 296 272 277 271 284 284 276 293 326 298 264 253 257 238 238 249 264 273 276 271 259 263 269 264 272 255 239 258 257 259 259 247 209 213 220
289 288 306 305 299 317 22 325 292 273 264 264 276 308 304 299 53 311 268 263 271 256 211 245 283 288 296 274 261 252 245 245 261 256 235 249 262 273 268 255 225 210 220
278 281 285 287 293 308 35 337 295 274 275 270 243 213 97 336 2 301 274 270 274 289 284 247 238 231 240 229 220 238 246 247 258 257 218 233 260 276 271 247 238 230 226